Wind_Speed
27 30 31 32 33 33 32 29 26 23 22 21 19 19 22 27 29 27 27 27 25 25 24 24 23 21 19 18 17 15 15 15 15 17 19 20 21 22 22 21 22 22 21 21
26 27 28 31 32 33 32 30 26 23 23 22 21 21 23 26 26 25 25 26 27 26 25 25 24 23 21 20 17 17 15 17 19 21 24 25 26 27 26 26 26 26 25 24
24 24 27 30 31 32 33 31 27 24 24 23 23 25 27 28 27 27 26 27 28 28 28 26 24 25 23 21 22 22 20 21 23 25 26 29 30 31 31 31 30 30 28 27
23 24 27 29 30 30 31 31 29 27 26 24 25 27 29 29 28 29 29 28 28 28 29 29 29 27 26 26 25 24 23 25 26 28 30 32 33 34 34 34 33 31 30 29
22 23 25 28 29 30 29 30 30 29 28 27 27 29 30 31 31 31 31 30 30 30 30 30 30 30 29 29 28 28 28 30 30 32 34 35 36 36 36 36 34 32 31 31
22 23 24 24 26 28 29 31 32 31 30 29 29 30 31 32 33 34 33 32 32 32 32 33 33 33 33 32 32 32 34 35 36 37 37 36 37 37 36 36 36 35 34 33
21 23 23 23 24 26 28 31 33 33 32 31 29 31 32 32 33 35 36 36 36 35 35 35 35 35 35 35 36 37 38 39 40 40 40 39 39 38 38 37 36 35 33 31
19 20 21 22 22 23 25 29 32 33 34 33 30 32 33 31 31 33 36 38 39 38 37 37 37 37 38 39 40 41 42 42 43 43 42 41 39 38 37 37 34 33 33 34
17 16 17 17 18 19 21 24 28 31 34 34 34 36 35 33 32 34 36 38 39 39 38 38 38 39 41 43 44 44 45 46 45 45 43 41 39 38 36 35 35 35 35 36
15 16 16 16 17 18 19 21 24 28 31 33 34 35 37 35 34 35 36 37 39 39 39 39 40 41 42 43 45 46 47 47 46 45 44 41 40 38 38 37 37 37 37 38
14 16 17 17 17 17 18 22 25 27 29 30 32 34 37 36 33 32 33 35 38 40 40 40 41 41 42 43 45 46 47 47 46 45 43 42 41 40 39 39 40 40 40 41
12 16 17 19 18 18 20 23 25 27 29 30 33 37 38 36 34 31 31 32 36 39 40 41 42 43 43 44 45 45 45 45 44 43 43 42 42 43 43 43 43 43 44 45
9 13 17 20 20 21 22 23 26 28 29 30 33 37 38 38 35 33 32 31 33 36 39 42 43 45 45 46 45 43 42 42 42 43 43 44 45 46 46 47 47 48 49 50
9 11 14 18 20 22 24 25 26 28 29 31 34 38 39 39 38 37 36 35 34 35 35 39 41 43 45 45 45 44 43 43 43 44 45 46 47 48 49 50 51 52 53 54
6 9 12 14 17 21 24 26 25 28 29 31 34 37 40 40 39 38 37 35 35 36 37 37 39 41 44 44 43 43 42 43 44 46 47 48 50 51 52 53 54 55 56 57
4 6 8 11 14 16 18 21 23 24 28 30 33 36 39 40 40 40 39 37 35 34 35 37 37 37 39 41 41 41 41 42 43 45 46 47 49 50 52 53 55 56 56 57
2 4 6 9 11 12 14 16 18 20 23 26 30 33 36 38 37 37 35 34 34 33 32 34 35 37 37 37 37 38 40 42 43 44 45 45 46 48 49 50 52 53 54 54
5 4 5 8 10 12 11 12 15 18 20 22 25 27 30 32 33 32 32 32 32 30 29 29 29 30 32 34 37 39 41 41 42 43 45 46 46 47 47 47 48 48 49 48
7 7 7 8 9 10 12 14 15 17 19 20 22 23 25 27 29 29 28 28 28 28 27 27 28 29 30 32 34 36 38 40 41 42 44 45 46 46 47 47 46 46 46 46
10 9 9 9 10 10 11 14 15 16 18 18 19 19 19 20 21 23 23 23 24 24 25 25 27 27 28 29 31 34 36 39 40 41 42 43 43 43 43 43 43 44 44 45
13 12 12 11 11 11 11 13 15 16 16 17 17 17 17 17 17 17 18 19 20 21 22 23 24 26 28 29 30 32 33 35 36 38 39 39 40 40 40 41 42 42 43 43
14 13 13 13 12 11 12 12 13 14 14 15 14 14 14 14 15 15 16 17 18 18 20 21 23 25 26 28 29 30 32 33 34 35 36 37 37 38 39 39 40 40 41 41
15 15 14 13 12 11 12 12 12 12 12 12 11 11 12 12 13 14 15 16 17 18 19 21 22 23 24 25 27 28 29 30 31 32 34 35 36 36 37 37 38 38 37 37
17 17 16 14 12 11 11 11 11 11 10 10 10 10 10 11 11 12 13 14 16 17 18 20 21 21 22 24 25 26 27 28 29 31 32 33 33 33 34 33 33 33 33 33
20 20 18 16 14 12 11 11 11 10 9 8 8 9 9 9 10 11 12 14 15 16 17 18 19 20 21 22 23 24 25 27 28 29 29 29 29 30 29 29 28 28 27 26
20 20 19 17 15 14 13 11 10 9 8 8 8 8 8 9 10 11 12 13 14 15 16 17 18 18 19 19 20 22 23 24 25 25 25 25 24 23 22 22 22 20 19 18
Wind_Direction
222 220 218 217 218 219 222 223 223 220 213 209 201 196 194 197 201 207 217 227 235 241 249 251 251 249 249 246 245 244 253 265 276 285 289 291 292 295 296 296 295 296 297 301
222 219 215 215 215 216 217 218 217 214 212 208 195 190 188 191 196 205 216 228 236 242 251 255 258 261 262 262 256 255 262 268 276 282 287 290 290 293 295 294 292 291 291 294
221 216 213 213 214 215 215 214 209 205 209 208 195 189 187 189 197 205 214 225 236 244 252 259 262 263 269 271 277 271 267 269 276 279 283 287 289 289 291 290 288 288 288 290
215 213 211 210 211 213 214 211 206 204 208 206 200 191 192 194 201 212 219 226 235 242 250 257 262 265 271 273 278 279 277 280 282 283 285 285 287 288 288 288 287 286 286 287
208 208 210 210 208 209 209 208 207 206 209 208 205 200 195 202 208 217 223 230 237 244 251 257 265 269 273 278 281 282 282 283 285 287 287 285 286 286 285 285 286 286 285 285
196 199 203 205 205 207 205 206 208 208 210 210 210 208 201 208 215 222 228 234 240 246 252 257 263 269 273 278 280 282 283 284 287 289 287 286 287 286 285 284 284 283 283 284
190 194 196 197 199 204 207 207 209 210 213 212 214 217 213 213 218 225 230 234 240 246 251 257 263 267 271 275 277 279 281 283 286 287 288 288 287 285 284 283 281 282 282 282
182 188 191 196 201 204 207 210 212 214 217 216 217 223 223 221 224 228 232 235 239 244 250 255 259 263 267 270 274 276 280 281 285 287 287 286 284 283 283 282 280 281 282 283
172 177 184 192 199 205 208 212 214 217 221 223 222 228 231 229 230 233 236 238 240 244 248 251 256 260 263 267 271 274 277 280 283 285 285 284 282 281 281 280 281 281 282 283
173 174 179 182 193 203 209 210 214 218 221 224 223 229 233 233 235 236 237 238 240 243 247 250 254 258 262 265 269 272 275 278 280 281 281 280 279 279 278 279 279 281 282 284
179 179 181 186 191 197 205 210 216 219 221 224 223 227 232 233 234 234 235 238 240 242 246 250 254 258 261 264 267 270 272 275 277 277 277 277 277 278 278 279 281 282 283 285
182 184 186 194 197 200 207 210 215 218 221 224 226 228 231 234 236 241 243 244 242 241 244 249 253 256 259 262 265 268 270 272 273 274 275 276 276 277 279 280 281 282 284 286
199 194 196 203 209 211 214 216 219 222 223 225 227 232 233 238 243 248 250 250 250 248 248 249 253 256 257 260 262 263 266 268 270 271 273 274 275 276 277 279 280 282 283 285
227 217 214 214 218 221 225 227 229 229 229 229 230 235 238 243 247 253 256 257 257 255 255 254 255 256 257 258 259 260 263 266 268 270 271 272 273 274 275 277 279 280 282 283
246 242 240 236 235 235 238 239 239 237 236 237 237 239 243 247 250 254 258 259 259 261 261 261 258 259 259 259 259 261 263 265 266 268 269 270 272 273 273 275 277 279 280 281
263 258 254 253 253 248 247 243 241 241 240 241 243 245 246 250 254 257 260 262 265 266 269 268 266 266 265 263 262 263 266 268 268 268 268 268 269 271 272 273 275 276 277 278
309 274 262 261 267 270 262 250 248 249 247 250 250 251 251 254 258 262 268 269 270 273 275 274 270 271 269 269 268 268 270 270 268 266 265 267 268 269 271 273 274 275 277 278
2 326 296 283 282 277 275 269 266 263 259 262 261 260 260 260 263 269 274 277 278 280 282 280 278 277 277 275 274 273 271 268 268 269 271 273 273 275 276 278 279 279 281 283
357 341 322 311 300 293 288 286 282 275 271 271 275 272 270 270 271 277 280 282 283 283 285 285 284 282 278 275 275 274 274 274 274 276 278 279 280 281 283 284 286 286 285 285
356 348 336 326 316 306 296 290 288 283 281 280 281 280 280 281 283 283 285 287 289 290 290 288 285 281 280 279 278 278 279 279 280 282 284 285 286 286 286 286 286 285 284 284
352 346 340 333 327 320 307 297 292 288 288 289 288 287 288 287 288 289 290 291 292 292 290 286 285 283 284 285 285 285 286 287 288 290 290 290 289 288 287 286 285 285 284 284
351 346 342 337 331 324 313 302 295 294 292 292 292 291 289 289 292 292 294 295 296 295 293 291 291 291 290 290 291 292 293 293 293 293 293 292 292 291 290 288 287 286 285 285
350 346 341 338 333 322 314 307 304 301 298 296 295 296 295 295 295 297 298 299 299 298 298 298 298 298 297 297 298 298 298 298 298 297 297 296 294 293 292 290 289 289 288 287
350 347 342 338 334 327 320 314 311 306 302 302 302 301 300 300 300 302 304 303 303 302 303 304 304 303 303 304 304 304 304 304 304 304 302 300 298 296 294 292 292 291 291 290
348 347 344 341 335 329 322 320 317 312 311 312 312 309 307 307 308 308 309 309 310 311 311 311 311 311 311 312 312 312 312 312 312 310 308 306 303 299 296 295 296 296 295 294
347 346 345 342 337 332 329 328 327 321 318 320 317 314 316 317 318 318 319 320 320 320 319 318 318 319 321 322 323 324 324 323 322 321 318 315 312 308 304 302 302 303 304 304
Height
5781 5787 5792 5798 5803 5809 5814 5819 5823 5827 5828 5831 5834 5837 5840 5843 5847 5851 5853 5855 5857 5860 5864 5866 5869 5870 5871 5871 5872 5875 5876 5876 5875 5875 5875 5875 5874 5874 5873 5873 5872 5870 5870 5868
5777 5782 5787 5791 5797 5802 5808 5814 5820 5823 5825 5828 5830 5833 5837 5840 5844 5847 5849 5851 5853 5856 5859 5862 5865 5866 5868 5870 5870 5870 5870 5871 5870 5870 5869 5868 5867 5867 5866 5866 5865 5864 5863 5862
5772 5778 5781 5786 5792 5798 5803 5810 5815 5818 5820 5824 5828 5831 5834 5838 5840 5842 5844 5847 5850 5853 5856 5858 5860 5862 5864 5865 5866 5865 5865 5866 5865 5864 5863 5863 5861 5860 5859 5858 5857 5856 5856 5855
5767 5772 5776 5781 5787 5793 5800 5805 5810 5813 5817 5820 5825 5828 5832 5835 5837 5838 5841 5843 5845 5848 5851 5854 5856 5857 5859 5860 5859 5859 5859 5860 5859 5859 5859 5857 5855 5854 5853 5851 5850 5849 5848 5847
5763 5768 5773 5778 5783 5788 5795 5800 5804 5809 5812 5817 5820 5824 5829 5832 5834 5835 5837 5839 5841 5843 5846 5849 5851 5852 5853 5853 5853 5853 5853 5853 5852 5852 5851 5850 5849 5847 5845 5844 5843 5841 5841 5840
5759 5764 5769 5774 5779 5784 5790 5795 5800 5804 5808 5813 5816 5820 5825 5828 5830 5832 5833 5835 5837 5839 5841 5843 5844 5846 5846 5847 5847 5847 5846 5845 5845 5845 5843 5841 5841 5839 5837 5836 5835 5834 5833 5832
5757 5761 5765 5770 5775 5780 5786 5791 5797 5801 5805 5810 5813 5815 5820 5822 5825 5827 5829 5830 5832 5833 5835 5836 5837 5838 5839 5839 5840 5840 5839 5839 5838 5837 5835 5834 5833 5831 5830 5828 5827 5826 5825 5824
5755 5760 5764 5768 5773 5777 5782 5787 5793 5797 5801 5805 5808 5810 5814 5817 5820 5821 5822 5824 5826 5827 5829 5830 5831 5832 5832 5832 5832 5832 5831 5830 5829 5828 5827 5826 5825 5823 5822 5820 5818 5818 5817 5816
5754 5759 5763 5767 5771 5775 5778 5783 5788 5792 5795 5800 5803 5805 5808 5812 5814 5815 5816 5818 5819 5821 5822 5823 5824 5824 5824 5825 5824 5824 5823 5822 5821 5820 5819 5818 5816 5815 5814 5812 5811 5810 5808 5807
5754 5758 5761 5765 5768 5772 5776 5779 5783 5786 5790 5793 5798 5800 5802 5805 5807 5808 5808 5809 5811 5812 5813 5814 5815 5816 5816 5816 5816 5815 5814 5813 5812 5811 5810 5809 5808 5807 5805 5804 5802 5801 5799 5798
5753 5757 5760 5763 5765 5768 5772 5775 5778 5781 5785 5789 5792 5796 5795 5797 5799 5799 5800 5800 5801 5803 5804 5805 5805 5806 5806 5807 5807 5806 5805 5804 5803 5802 5801 5800 5798 5797 5795 5794 5793 5791 5789 5788
5752 5756 5758 5760 5763 5766 5768 5770 5773 5777 5780 5783 5786 5790 5787 5789 5790 5791 5791 5791 5792 5793 5794 5795 5795 5796 5797 5797 5797 5797 5796 5795 5794 5793 5791 5790 5788 5787 5785 5784 5782 5780 5779 5777
5752 5755 5757 5760 5763 5764 5765 5766 5769 5771 5774 5777 5779 5782 5780 5781 5782 5783 5782 5782 5783 5783 5785 5785 5786 5786 5786 5787 5787 5787 5787 5786 5785 5783 5782 5780 5778 5776 5775 5773 5771 5769 5767 5765
5752 5754 5756 5758 5759 5760 5761 5763 5764 5767 5769 5771 5772 5773 5773 5774 5775 5774 5774 5774 5775 5775 5775 5775 5776 5776 5776 5776 5776 5776 5776 5776 5775 5773 5772 5770 5768 5766 5764 5762 5760 5758 5756 5753
5752 5752 5753 5755 5756 5756 5757 5759 5760 5762 5763 5765 5766 5766 5766 5767 5767 5767 5766 5766 5766 5766 5766 5766 5766 5766 5766 5766 5766 5766 5766 5765 5764 5762 5760 5759 5756 5755 5752 5750 5748 5746 5743 5740
5751 5751 5751 5751 5751 5751 5752 5753 5755 5756 5757 5758 5759 5759 5759 5759 5759 5758 5758 5758 5757 5757 5756 5756 5756 5757 5756 5756 5756 5756 5756 5755 5753 5750 5748 5746 5744 5743 5740 5738 5735 5733 5730 5727
5750 5750 5749 5748 5748 5748 5748 5749 5750 5750 5751 5752 5752 5753 5752 5752 5752 5751 5750 5749 5749 5748 5748 5747 5747 5747 5747 5747 5747 5747 5746 5744 5742 5739 5737 5734 5732 5730 5728 5725 5722 5719 5717 5714
5749 5748 5747 5746 5746 5745 5747 5745 5745 5745 5745 5745 5745 5745 5744 5744 5744 5743 5742 5741 5741 5740 5739 5739 5738 5738 5738 5738 5737 5736 5735 5732 5730 5728 5726 5723 5720 5717 5714 5712 5709 5706 5703 5700
5748 5747 5745 5744 5743 5742 5741 5740 5739 5739 5738 5738 5738 5737 5737 5737 5737 5736 5734 5734 5734 5733 5732 5731 5730 5730 5729 5728 5727 5725 5724 5722 5719 5717 5714 5712 5709 5705 5702 5699 5696 5693 5690 5686
5746 5745 5743 5741 5740 5739 5739 5736 5734 5734 5733 5732 5732 5731 5731 5730 5730 5729 5728 5727 5727 5726 5725 5724 5723 5722 5720 5719 5717 5715 5713 5711 5709 5706 5703 5699 5696 5693 5689 5686 5683 5679 5676 5672
5744 5742 5740 5738 5737 5735 5734 5732 5730 5730 5729 5728 5726 5726 5725 5725 5724 5723 5722 5721 5720 5719 5718 5717 5716 5714 5712 5710 5708 5706 5703 5701 5698 5695 5691 5687 5683 5680 5676 5673 5669 5666 5662 5658
5743 5740 5738 5735 5733 5733 5729 5727 5727 5725 5723 5722 5721 5721 5720 5720 5719 5718 5717 5716 5715 5713 5712 5711 5709 5707 5705 5702 5700 5697 5694 5691 5688 5684 5680 5676 5672 5668 5664 5660 5656 5652 5648 5645
5741 5738 5735 5733 5732 5728 5725 5723 5722 5720 5719 5718 5718 5717 5716 5715 5714 5714 5712 5711 5710 5708 5707 5705 5703 5700 5698 5695 5692 5689 5685 5682 5678 5674 5670 5665 5661 5656 5651 5647 5643 5640 5636 5633
5738 5735 5732 5729 5727 5724 5722 5720 5718 5717 5716 5715 5714 5713 5712 5712 5711 5710 5708 5707 5705 5703 5701 5699 5696 5694 5691 5688 5684 5681 5677 5673 5669 5665 5660 5655 5650 5645 5640 5636 5632 5629 5626 5622
5736 5732 5729 5726 5724 5721 5719 5717 5715 5713 5712 5711 5710 5710 5709 5708 5707 5706 5704 5702 5701 5698 5696 5693 5691 5688 5685 5681 5678 5674 5670 5666 5661 5656 5650 5645 5640 5635 5631 5627 5623 5619 5616 5614
5734 5731 5727 5724 5721 5718 5716 5714 5712 5711 5710 5709 5708 5707 5706 5705 5704 5702 5700 5699 5697 5694 5692 5689 5686 5683 5680 5676 5672 5668 5664 5659 5654 5649 5643 5638 5633 5628 5623 5620 5616 5612 5610 5607